NSZ8286 LZIB-LDDU

Flight info

Callsign NSZ8286
Flight time N/A
Altitude 38000
Route VAMOG DCT VEBAL/N0438F390 DCT LURID DCT NERRA
Aircraft B738/M-SDE2E3FGHIRWXY/LB1

Departure

Time 2026-04-29 08:47
Airport M. R. Štefánik Airport (LZIB)

Arrival

Time N/A
Airport Dubrovnik Ruđer Bošković Airport (LDDU)
Time Latitude Longitude Altitude Speed Heading
2026-04-29 08:26 48.16886 17.20048 421 ft 0 kts 314°
2026-04-29 08:26 48.16886 17.20049 431 ft 0 kts 314°
2026-04-29 08:41 48.16884 17.20052 419 ft 3 kts 314°
2026-04-29 08:41 48.16865 17.20080 424 ft 4 kts 311°
2026-04-29 08:41 48.16853 17.20110 417 ft 4 kts 263°
2026-04-29 08:42 48.16854 17.20121 417 ft 0 kts 224°
2026-04-29 08:44 48.16853 17.20121 431 ft 1 kts 208°
2026-04-29 08:44 48.16848 17.20128 418 ft 1 kts 127°
2026-04-29 08:44 48.16842 17.20150 421 ft 5 kts 116°
2026-04-29 08:44 48.16786 17.20252 429 ft 18 kts 135°
2026-04-29 08:45 48.16684 17.20341 432 ft 18 kts 209°
2026-04-29 08:45 48.16587 17.20221 429 ft 18 kts 220°
2026-04-29 08:45 48.16481 17.20087 423 ft 22 kts 220°
2026-04-29 08:45 48.16355 17.19926 433 ft 24 kts 221°
2026-04-29 08:46 48.16222 17.19793 434 ft 23 kts 180°
2026-04-29 08:46 48.16113 17.19943 434 ft 22 kts 101°
2026-04-29 08:46 48.16209 17.20130 433 ft 35 kts 44°
2026-04-29 08:46 48.16593 17.20684 430 ft 116 kts 44°
2026-04-29 08:47 48.17335 17.21754 583 ft 170 kts 44°
2026-04-29 08:47 48.18238 17.23065 1282 ft 191 kts 44°
2026-04-29 08:47 48.19243 17.24511 1805 ft 215 kts 42°
2026-04-29 08:47 48.20372 17.26126 2326 ft 235 kts 43°
2026-04-29 08:48 48.21451 17.28118 2954 ft 255 kts 64°
2026-04-29 08:48 48.21791 17.30729 4001 ft 259 kts 94°
2026-04-29 08:48 48.21342 17.33319 5220 ft 259 kts 105°
2026-04-29 08:48 48.20906 17.36009 5959 ft 274 kts 100°
2026-04-29 08:49 48.20541 17.38828 6942 ft 275 kts 98°
2026-04-29 08:49 48.20179 17.41685 7788 ft 284 kts 99°
2026-04-29 08:49 48.19793 17.44630 8622 ft 290 kts 99°
2026-04-29 08:49 48.19186 17.47527 9603 ft 296 kts 114°
2026-04-29 08:50 48.18118 17.50202 10404 ft 306 kts 126°
2026-04-29 08:50 48.16659 17.52663 10788 ft 328 kts 136°
2026-04-29 08:50 48.14841 17.54869 11332 ft 341 kts 147°
2026-04-29 08:50 48.12693 17.56436 12052 ft 347 kts 166°
2026-04-29 08:51 48.10326 17.57186 12905 ft 350 kts 172°
2026-04-29 08:51 48.07892 17.57782 13611 ft 360 kts 173°
2026-04-29 08:51 48.05429 17.58398 14315 ft 366 kts 172°
2026-04-29 08:51 48.02912 17.59073 15070 ft 370 kts 172°
2026-04-29 08:52 48.00365 17.59795 15836 ft 374 kts 172°
2026-04-29 08:52 47.97799 17.60549 16580 ft 378 kts 172°
2026-04-29 08:52 47.95205 17.61326 17306 ft 383 kts 172°
2026-04-29 08:52 47.92579 17.62117 18021 ft 387 kts 172°
2026-04-29 08:53 47.89930 17.62918 18759 ft 390 kts 172°
2026-04-29 08:53 47.87257 17.63725 19387 ft 394 kts 172°
2026-04-29 08:53 47.84549 17.64540 20007 ft 399 kts 173°
2026-04-29 08:53 47.81816 17.65361 20613 ft 403 kts 173°
2026-04-29 08:54 47.79054 17.66139 21232 ft 404 kts 178°
2026-04-29 08:54 47.76279 17.66009 21826 ft 397 kts 194°
2026-04-29 08:54 47.73545 17.65390 22476 ft 399 kts 195°
2026-04-29 08:54 47.70790 17.64753 23063 ft 402 kts 195°
2026-04-29 08:55 47.67997 17.64115 23566 ft 408 kts 196°
2026-04-29 08:55 47.65171 17.63484 24065 ft 413 kts 195°
2026-04-29 08:55 47.62324 17.62865 24571 ft 415 kts 195°
2026-04-29 08:55 47.59455 17.62254 25082 ft 417 kts 196°
2026-04-29 08:56 47.56566 17.61645 25573 ft 420 kts 196°
2026-04-29 08:56 47.53664 17.61037 26039 ft 423 kts 196°
2026-04-29 08:56 47.50738 17.60427 26511 ft 426 kts 196°
2026-04-29 08:56 47.47792 17.59813 26960 ft 429 kts 196°
2026-04-29 08:57 47.44828 17.59197 27397 ft 432 kts 196°
2026-04-29 08:57 47.41879 17.58584 27830 ft 434 kts 197°
2026-04-29 08:57 47.38880 17.57961 28258 ft 437 kts 197°
2026-04-29 08:57 47.35858 17.57334 28681 ft 439 kts 197°
2026-04-29 08:58 47.32823 17.56705 29089 ft 442 kts 197°
2026-04-29 08:58 47.29762 17.56072 29490 ft 445 kts 197°
2026-04-29 08:58 47.26681 17.55433 29725 ft 451 kts 197°
2026-04-29 08:58 47.23558 17.54784 29991 ft 456 kts 197°
2026-04-29 08:59 47.20410 17.54135 30371 ft 458 kts 197°
2026-04-29 08:59 47.17251 17.53486 30711 ft 459 kts 197°
2026-04-29 08:59 47.14084 17.52838 31026 ft 461 kts 197°
2026-04-29 08:59 47.10897 17.52185 31313 ft 463 kts 197°
2026-04-29 09:00 47.07695 17.51528 31533 ft 465 kts 197°
2026-04-29 09:00 47.04490 17.50873 31898 ft 466 kts 197°
2026-04-29 09:00 47.01275 17.50216 32262 ft 466 kts 197°
2026-04-29 09:00 46.98068 17.49562 32660 ft 464 kts 197°
2026-04-29 09:01 46.94877 17.48914 33101 ft 462 kts 197°
2026-04-29 09:01 46.91700 17.48268 33518 ft 461 kts 197°
2026-04-29 09:01 46.88524 17.47621 33891 ft 460 kts 197°
2026-04-29 09:01 46.85350 17.46974 34136 ft 462 kts 197°
2026-04-29 09:02 46.82151 17.46319 34310 ft 465 kts 197°
2026-04-29 09:02 46.78939 17.45664 34591 ft 465 kts 197°
2026-04-29 09:02 46.75742 17.45017 34941 ft 463 kts 197°
2026-04-29 09:02 46.72552 17.44374 35260 ft 462 kts 196°
2026-04-29 09:03 46.69368 17.43730 35511 ft 463 kts 196°
2026-04-29 09:03 46.66218 17.43093 35718 ft 463 kts 196°
2026-04-29 09:03 46.63023 17.42448 36015 ft 462 kts 196°
2026-04-29 09:03 46.59840 17.41807 36298 ft 462 kts 195°
2026-04-29 09:04 46.56653 17.41165 36543 ft 462 kts 195°
2026-04-29 09:04 46.53471 17.40524 36777 ft 462 kts 195°
2026-04-29 09:04 46.50281 17.39883 37028 ft 462 kts 195°
2026-04-29 09:04 46.47097 17.39244 37274 ft 462 kts 195°
2026-04-29 09:05 46.43910 17.38605 37520 ft 461 kts 195°
2026-04-29 09:05 46.40733 17.37970 37806 ft 460 kts 195°
2026-04-29 09:05 46.37557 17.37335 38014 ft 461 kts 195°
2026-04-29 09:05 46.34376 17.36698 38169 ft 463 kts 195°
2026-04-29 09:06 46.31171 17.36057 38223 ft 466 kts 195°
2026-04-29 09:06 46.24774 17.34782 38207 ft 466 kts 195°
2026-04-29 09:07 46.18411 17.33526 38225 ft 456 kts 195°
2026-04-29 09:07 46.12115 17.32275 38221 ft 457 kts 195°
2026-04-29 09:08 46.05819 17.31026 38207 ft 456 kts 195°
2026-04-29 09:08 45.99534 17.29840 38220 ft 458 kts 191°
2026-04-29 09:08 45.96316 17.29837 38242 ft 469 kts 182°
2026-04-29 09:09 45.93041 17.30224 38396 ft 471 kts 181°
2026-04-29 09:09 45.89821 17.30667 38676 ft 470 kts 181°
2026-04-29 09:09 45.86566 17.31124 38925 ft 469 kts 181°
2026-04-29 09:09 45.83320 17.31565 39131 ft 467 kts 181°
2026-04-29 09:10 45.80073 17.31986 39215 ft 469 kts 181°
2026-04-29 09:10 45.73522 17.32786 39221 ft 475 kts 181°
2026-04-29 09:11 45.66881 17.33575 39235 ft 481 kts 181°
2026-04-29 09:11 45.60213 17.34367 39201 ft 486 kts 181°
2026-04-29 09:12 45.53471 17.35172 39212 ft 487 kts 181°
2026-04-29 09:12 45.46725 17.35976 39228 ft 487 kts 181°
2026-04-29 09:13 45.39953 17.36779 39215 ft 488 kts 181°
2026-04-29 09:13 45.33159 17.37583 39214 ft 490 kts 181°
2026-04-29 09:14 45.26369 17.38386 39215 ft 489 kts 181°
2026-04-29 09:14 45.19583 17.39186 39199 ft 488 kts 181°
2026-04-29 09:15 45.12952 17.39964 39199 ft 487 kts 182°
2026-04-29 09:15 45.07485 17.40426 39208 ft 484 kts 184°
2026-04-29 09:15 45.04112 17.40632 38923 ft 485 kts 184°
2026-04-29 09:16 45.00767 17.40824 38384 ft 480 kts 184°
2026-04-29 09:16 44.97442 17.41017 37951 ft 474 kts 184°
2026-04-29 09:16 44.94154 17.41218 37510 ft 469 kts 184°
2026-04-29 09:16 44.90915 17.41424 37126 ft 463 kts 184°
2026-04-29 09:17 44.87704 17.41633 36700 ft 459 kts 184°
2026-04-29 09:17 44.84530 17.41843 36308 ft 454 kts 184°
2026-04-29 09:17 44.81383 17.42052 35878 ft 450 kts 184°
2026-04-29 09:17 44.78270 17.42259 35490 ft 446 kts 184°
2026-04-29 09:18 44.75184 17.42463 35100 ft 442 kts 184°
2026-04-29 09:18 44.72122 17.42666 34699 ft 439 kts 185°
2026-04-29 09:18 44.69083 17.42866 34304 ft 436 kts 185°
2026-04-29 09:18 44.66105 17.43059 33885 ft 433 kts 185°
2026-04-29 09:19 44.63108 17.43256 33449 ft 430 kts 185°
2026-04-29 09:19 44.60137 17.43455 33040 ft 425 kts 184°
2026-04-29 09:19 44.57193 17.43650 32655 ft 422 kts 184°
2026-04-29 09:19 44.54274 17.43842 32255 ft 418 kts 184°
2026-04-29 09:20 44.51383 17.44026 31911 ft 415 kts 184°
2026-04-29 09:20 44.48500 17.44213 31525 ft 412 kts 184°
2026-04-29 09:20 44.45645 17.44400 31151 ft 410 kts 184°
2026-04-29 09:20 44.42796 17.44587 30783 ft 408 kts 184°
2026-04-29 09:21 44.39961 17.44774 30379 ft 406 kts 184°
2026-04-29 09:21 44.37150 17.44958 29982 ft 403 kts 184°
2026-04-29 09:21 44.34356 17.45141 29592 ft 400 kts 184°
2026-04-29 09:21 44.31592 17.45322 29203 ft 396 kts 184°
2026-04-29 09:22 44.28852 17.45501 28816 ft 392 kts 183°
2026-04-29 09:22 44.26144 17.45679 28434 ft 388 kts 183°
2026-04-29 09:22 44.23460 17.45855 28076 ft 383 kts 183°
2026-04-29 09:22 44.20813 17.46028 27669 ft 379 kts 183°
2026-04-29 09:23 44.19073 17.46140 27473 ft 376 kts 183°
2026-04-29 09:23 44.16466 17.46308 27078 ft 374 kts 183°
2026-04-29 09:23 44.13866 17.46476 26731 ft 372 kts 183°
2026-04-29 09:23 44.11291 17.46642 26368 ft 370 kts 183°
2026-04-29 09:24 44.07899 17.46859 25893 ft 367 kts 183°
2026-04-29 09:24 44.06177 17.46970 25653 ft 366 kts 182°
2026-04-29 09:24 44.03640 17.47133 25305 ft 364 kts 182°
2026-04-29 09:24 44.01109 17.47296 24924 ft 363 kts 182°
2026-04-29 09:25 43.98592 17.47458 24587 ft 361 kts 182°
2026-04-29 09:25 43.96089 17.47619 24243 ft 360 kts 182°
2026-04-29 09:25 43.93592 17.47780 23888 ft 359 kts 182°
2026-04-29 09:25 43.91099 17.47939 23509 ft 358 kts 182°
2026-04-29 09:26 43.88605 17.48099 23108 ft 357 kts 182°
2026-04-29 09:26 43.86167 17.48257 22730 ft 355 kts 182°
2026-04-29 09:26 43.83712 17.48415 22362 ft 351 kts 182°
2026-04-29 09:26 43.81292 17.48571 22068 ft 345 kts 182°
2026-04-29 09:27 43.78905 17.48724 21703 ft 342 kts 182°
2026-04-29 09:27 43.76531 17.48877 21367 ft 340 kts 182°
2026-04-29 09:27 43.74172 17.49028 21022 ft 339 kts 182°
2026-04-29 09:27 43.71817 17.49178 20684 ft 337 kts 182°
2026-04-29 09:28 43.69483 17.49327 20359 ft 336 kts 182°
2026-04-29 09:28 43.67150 17.49475 20026 ft 334 kts 182°
2026-04-29 09:28 43.64829 17.49622 19687 ft 333 kts 182°
2026-04-29 09:28 43.62512 17.49769 19360 ft 332 kts 182°
2026-04-29 09:29 43.60213 17.49915 19026 ft 331 kts 182°
2026-04-29 09:29 43.55627 17.50206 18376 ft 329 kts 182°
2026-04-29 09:29 43.53342 17.50351 17999 ft 328 kts 182°
2026-04-29 09:30 43.51067 17.50496 17655 ft 327 kts 182°
2026-04-29 09:30 43.48799 17.50640 17323 ft 325 kts 182°
2026-04-29 09:30 43.46574 17.50781 16987 ft 324 kts 182°
2026-04-29 09:30 43.44324 17.50924 16669 ft 322 kts 182°
2026-04-29 09:31 43.42095 17.51065 16342 ft 320 kts 182°
2026-04-29 09:31 43.39875 17.51205 16023 ft 318 kts 182°
2026-04-29 09:31 43.37669 17.51345 15718 ft 316 kts 182°
2026-04-29 09:31 43.35480 17.51483 15394 ft 315 kts 182°
2026-04-29 09:32 43.33295 17.51621 15071 ft 313 kts 181°
2026-04-29 09:32 43.31124 17.51758 14763 ft 311 kts 181°
2026-04-29 09:32 43.28970 17.51893 14456 ft 309 kts 181°
2026-04-29 09:32 43.26821 17.52028 14144 ft 309 kts 181°
2026-04-29 09:33 43.24673 17.52163 13831 ft 308 kts 181°
2026-04-29 09:33 43.22536 17.52298 13478 ft 307 kts 181°
2026-04-29 09:33 43.20434 17.52430 13154 ft 305 kts 181°
2026-04-29 09:33 43.18314 17.52562 12831 ft 304 kts 181°
2026-04-29 09:34 43.16210 17.52694 12518 ft 302 kts 181°
2026-04-29 09:34 43.14114 17.52826 12214 ft 300 kts 181°
2026-04-29 09:34 43.12038 17.52956 11910 ft 298 kts 180°
2026-04-29 09:34 43.09969 17.53085 11607 ft 297 kts 180°
2026-04-29 09:35 43.07909 17.53214 11294 ft 296 kts 180°
2026-04-29 09:35 43.05858 17.53343 11008 ft 295 kts 180°
2026-04-29 09:35 43.03810 17.53470 10709 ft 294 kts 180°
2026-04-29 09:35 43.01768 17.53597 10365 ft 294 kts 180°
2026-04-29 09:36 42.99723 17.53725 10157 ft 289 kts 180°
2026-04-29 09:36 42.97737 17.53851 10009 ft 283 kts 180°
2026-04-29 09:36 42.95773 17.53973 9691 ft 282 kts 180°
2026-04-29 09:36 42.93816 17.54094 9418 ft 281 kts 180°
2026-04-29 09:37 42.91872 17.54277 9138 ft 280 kts 172°
2026-04-29 09:37 42.90138 17.55369 8895 ft 282 kts 142°
2026-04-29 09:37 42.88828 17.57346 8664 ft 282 kts 128°
2026-04-29 09:37 42.87701 17.59533 8407 ft 282 kts 126°
2026-04-29 09:38 42.86594 17.61746 8151 ft 282 kts 126°
2026-04-29 09:38 42.85499 17.63945 7896 ft 279 kts 126°
2026-04-29 09:38 42.84406 17.66130 7658 ft 278 kts 126°
2026-04-29 09:38 42.83307 17.68306 7440 ft 277 kts 126°
2026-04-29 09:39 42.82224 17.70441 7232 ft 273 kts 127°